Theta_e
339 338 340 345 346 346 346 345 345 344 343 342 344 343 341 339 337 338 338 338 335 335 337 336 333 336 337 330 335 337 338 339 339 336 338 336 339 334 337 337 338 337 337
346 347 346 348 347 345 346 344 344 343 343 340 341 343 339 338 340 339 339 337 336 333 336 337 336 337 335 335 329 336 337 341 342 343 341 339 338 338 335 338 336 337 337
345 346 344 346 347 344 344 345 344 344 341 336 340 341 338 337 338 341 341 337 337 338 337 337 338 338 336 334 335 339 339 329 334 339 340 341 338 338 338 337 337 338 335
346 344 346 343 347 347 347 344 345 344 340 341 345 345 343 339 340 338 337 337 340 342 340 339 337 338 338 337 335 336 332 335 328 332 335 339 340 338 337 337 338 338 333
346 344 348 344 345 347 346 346 347 346 346 346 346 343 345 342 340 341 342 340 340 341 341 339 339 340 339 338 338 336 337 335 327 328 333 335 339 339 338 340 340 335 334
346 346 346 346 348 345 346 348 347 347 347 347 346 345 346 344 342 342 343 342 342 344 343 341 340 341 341 338 338 338 336 337 338 328 330 335 340 340 340 340 341 341 341
347 347 347 346 346 347 346 347 347 347 346 346 347 347 346 346 344 343 343 344 344 343 344 345 344 343 342 341 338 338 338 337 335 338 329 330 339 339 336 335 336 336 337
348 348 347 343 344 345 347 347 347 347 346 348 348 347 346 345 344 342 343 343 343 343 343 343 343 343 342 342 341 338 338 337 337 335 337 332 326 325 327 328 328 329 329
348 349 347 348 347 346 346 348 348 347 346 349 349 347 347 344 343 343 343 343 344 344 344 343 343 343 342 343 342 340 338 337 337 337 334 337 334 325 323 323 323 322 322
347 347 347 346 347 348 345 349 349 349 349 349 348 347 347 347 348 346 344 343 343 344 346 346 346 345 344 343 343 343 342 339 336 337 337 335 338 335 325 322 321 321 321
348 348 349 350 348 347 345 345 344 347 347 349 349 348 348 347 347 348 346 343 346 346 346 346 347 347 347 346 345 344 343 342 341 338 338 336 335 338 337 326 321 320 321
349 348 348 349 349 350 348 345 346 345 345 345 347 349 347 348 346 347 346 345 347 341 344 347 348 348 349 348 348 347 346 344 342 341 339 337 336 335 336 338 330 323 321
351 351 350 350 350 350 349 347 347 346 345 346 346 347 347 347 344 345 345 345 347 347 347 347 348 348 349 348 347 347 346 345 344 343 339 338 336 335 335 337 337 336 326
349 348 351 350 348 349 349 349 349 348 348 348 349 346 345 346 344 344 345 346 346 348 348 347 348 349 347 347 346 347 346 345 345 345 342 337 336 336 335 335 336 336 337
351 347 348 347 349 346 345 345 347 346 348 348 347 344 345 345 346 345 347 346 348 349 347 347 348 349 349 347 344 341 341 343 343 344 344 343 337 337 336 335 335 335 335
350 350 348 348 348 343 337 337 342 346 347 348 347 347 345 345 346 346 348 348 347 348 349 348 350 350 350 349 348 346 341 337 340 343 345 345 344 341 337 336 336 335 335
350 350 350 350 349 348 346 340 342 347 349 348 349 348 347 346 346 346 348 350 348 348 348 347 348 350 351 349 348 348 348 339 337 339 344 344 345 344 341 340 339 338 336
358 358 352 353 351 347 339 342 341 346 346 348 347 348 349 346 346 346 347 346 347 349 348 347 348 350 350 351 349 349 347 346 340 335 341 344 345 345 342 340 339 339 337
357 357 353 350 348 342 339 338 337 336 339 344 348 349 349 349 349 348 347 347 349 348 349 348 348 351 350 351 349 349 349 347 343 337 333 340 344 341 343 343 342 339 337
359 359 359 353 351 348 342 341 336 337 338 338 344 347 349 347 346 347 350 348 346 348 350 350 350 351 353 351 350 348 349 348 347 344 337 333 334 341 341 343 344 343 342
359 358 356 356 353 347 347 348 345 339 339 338 342 347 347 347 344 345 349 348 346 346 348 351 351 353 350 351 351 349 348 349 348 348 344 344 344 343 338 335 336 341 342
358 351 340 343 347 345 350 350 352 349 344 348 346 339 339 341 342 345 346 347 347 349 349 351 351 354 351 350 351 350 350 350 349 345 346 344 345 345 346 346 345 340 342
353 350 350 350 352 351 349 352 351 349 337 333 332 332 333 335 341 346 347 347 347 352 352 351 352 352 353 352 352 351 351 351 352 350 350 349 347 347 347 347 346 345 343
355 355 353 351 350 337 334 332 330 330 327 330 331 337 336 339 342 342 343 345 347 350 351 351 352 352 352 352 354 353 353 353 351 351 348 349 348 349 348 347 347 346 346
349 342 338 342 340 342 340 326 328 327 323 326 331 334 337 339 334 338 342 342 344 348 349 350 348 348 348 350 350 352 352 354 351 348 345 346 346 348 350 349 347 344 346
345 344 343 339 340 334 337 325 325 325 324 326 330 332 333 335 334 342 336 335 333 338 340 336 336 337 337 340 347 347 350 350 351 339 336 344 345 346 348 344 344 344 347
Wind_Speed
9 12 12 10 8 7 6 8 8 5 5 8 8 5 6 12 14 11 8 7 6 5 5 5 5 5 5 5 6 5 6 7 8 9 9 9 10 10 9 8 9 9 8
9 10 9 8 7 5 5 5 5 4 6 7 8 8 6 9 13 16 19 15 12 13 11 11 9 7 7 6 6 6 6 5 7 9 9 8 9 9 10 9 9 9 9
10 9 7 7 6 6 8 5 7 7 8 8 10 10 12 11 11 12 18 19 19 16 16 11 12 9 8 8 7 7 8 6 7 7 9 9 10 10 10 11 10 10 9
8 10 10 8 8 7 9 7 9 9 8 8 10 9 10 12 11 12 12 16 19 19 17 14 14 14 13 11 10 9 8 8 7 8 8 9 10 10 10 11 12 11 10
12 13 12 11 11 11 10 9 10 10 11 12 13 15 11 12 13 13 14 17 19 18 18 18 20 15 15 16 14 11 10 8 8 8 9 9 11 11 11 11 12 12 12
15 15 15 14 12 13 13 12 13 14 13 14 14 15 16 16 15 16 16 17 18 17 17 19 19 20 17 18 18 16 14 11 9 7 9 10 11 12 12 12 12 12 12
12 15 17 19 17 16 16 15 16 16 16 16 19 21 17 17 18 17 17 15 15 16 17 17 17 18 18 19 23 19 18 16 13 10 8 11 13 13 12 12 13 14 14
11 11 12 17 17 18 19 19 18 20 20 20 19 19 15 14 14 13 14 13 12 14 15 15 15 15 16 19 22 25 25 23 19 17 13 11 12 13 13 13 14 14 15
12 13 14 14 15 20 22 20 20 21 19 18 17 14 7 4 11 10 9 9 11 13 14 16 18 16 16 17 19 24 26 28 24 22 21 16 13 13 13 13 14 14 15
13 12 11 14 16 17 18 19 18 19 18 18 16 16 16 19 14 12 10 13 14 15 15 16 20 20 19 19 18 20 24 28 31 29 25 22 17 14 14 14 15 15 16
17 15 15 14 14 15 17 17 19 19 19 18 17 15 16 15 17 20 25 17 16 18 17 17 18 18 17 18 19 17 18 23 29 29 31 27 23 18 16 15 16 17 17
22 20 19 19 18 17 17 17 18 19 20 21 19 18 17 18 16 16 20 21 22 9 17 16 15 15 13 14 15 16 17 18 24 29 28 33 29 27 21 18 17 18 19
21 20 20 21 24 23 21 22 22 21 21 22 22 21 19 19 18 19 21 22 23 24 22 17 13 11 9 10 10 12 14 16 21 25 29 30 35 31 30 25 22 20 20
19 18 22 23 25 26 27 26 26 26 25 24 23 22 20 20 19 19 19 20 24 24 21 17 13 9 7 7 6 9 11 12 16 24 27 29 32 34 34 32 29 25 23
24 20 22 24 26 23 31 32 31 28 25 24 21 20 21 20 18 19 18 17 18 21 21 16 10 7 7 5 4 5 7 8 11 16 24 27 33 34 34 35 34 31 28
27 28 28 29 29 24 20 30 34 26 22 23 21 22 20 19 19 20 16 15 16 16 19 16 13 12 12 10 8 7 7 8 8 14 20 26 28 33 37 38 37 35 33
26 29 31 31 29 32 31 37 24 16 21 22 22 22 23 21 19 17 17 16 17 16 19 17 14 12 13 11 8 10 10 9 7 7 15 21 27 28 30 33 36 39 37
19 23 23 22 26 25 14 5 12 12 20 22 22 22 24 22 23 21 20 19 17 16 17 17 15 13 13 12 11 12 11 10 9 8 8 14 18 22 25 29 30 35 38
17 18 17 15 16 13 8 4 9 15 13 19 22 23 23 23 25 25 25 22 19 16 16 18 15 14 13 13 11 11 12 10 8 8 7 5 8 12 20 25 26 29 35
17 17 17 16 17 15 16 15 15 12 15 22 22 24 26 24 24 26 25 25 21 17 17 18 16 14 14 12 12 11 12 11 10 9 8 7 4 10 10 17 21 26 29
17 18 18 19 18 19 19 20 20 23 26 28 31 30 26 26 24 25 24 23 22 18 19 16 17 15 14 14 14 12 12 11 12 12 12 12 10 12 13 13 15 17 22
18 16 15 15 17 22 23 23 25 26 28 29 30 27 23 20 19 18 16 21 23 21 20 16 16 17 14 11 12 13 12 14 15 10 12 12 13 14 13 16 17 18 18
16 17 18 17 20 21 22 24 23 24 20 15 13 18 20 18 15 15 16 18 21 18 17 15 18 18 17 10 10 13 15 15 16 16 18 20 17 16 15 14 13 15 17
16 17 18 20 22 18 19 20 20 18 13 12 17 19 12 8 7 9 13 17 19 24 20 19 19 18 18 14 13 14 14 17 17 18 19 25 22 22 19 18 15 16 18
12 14 16 18 23 25 20 17 18 21 18 17 16 16 10 7 6 9 15 18 20 23 17 14 13 12 10 13 16 19 21 19 18 18 20 23 26 26 23 21 21 21 23
17 19 21 22 22 22 19 20 19 23 26 24 20 15 13 13 16 12 12 8 16 22 14 14 16 11 10 14 15 18 21 24 23 16 18 23 22 20 24 22 18 21 22
Wind_Direction
145 145 153 147 139 162 161 170 186 205 233 250 265 270 232 250 250 250 234 245 214 282 298 275 232 216 213 204 186 191 198 190 187 182 181 179 170 170 171 176 175 173 176
164 164 171 179 181 175 194 200 239 250 262 264 263 270 267 268 266 256 253 247 228 247 262 273 258 239 228 223 204 196 197 184 185 183 180 181 179 171 174 169 173 180 184
180 191 199 205 193 199 214 246 264 279 273 273 283 273 271 267 276 270 257 242 244 255 257 261 260 256 251 244 218 208 210 213 197 185 186 181 178 177 170 172 173 171 174
206 214 221 232 232 226 235 237 263 273 269 269 276 275 267 258 268 265 250 240 250 261 271 257 255 263 255 245 237 222 215 212 205 199 201 191 180 179 179 176 177 175 175
218 223 232 233 236 239 236 248 260 274 275 276 295 300 286 259 257 266 259 255 261 258 265 263 263 270 252 241 238 228 223 219 211 200 198 204 198 188 187 185 182 180 180
229 232 237 237 242 247 247 248 258 269 280 278 284 292 303 287 271 268 270 264 264 262 258 259 264 269 272 242 237 236 226 228 232 217 198 198 195 180 179 181 178 177 178
240 240 245 240 241 251 251 258 261 269 276 281 288 304 306 289 282 281 278 276 270 270 269 258 256 257 256 254 243 239 236 229 231 232 223 201 206 207 205 205 203 193 187
241 249 248 235 239 248 254 254 259 268 271 280 283 298 307 303 291 290 279 281 281 275 277 277 267 263 255 251 249 242 243 237 231 235 235 226 216 219 214 210 207 205 198
243 250 250 244 248 250 255 263 266 266 269 275 279 270 280 277 310 318 318 297 287 289 281 273 269 268 262 255 248 243 239 233 233 231 235 231 227 223 221 206 202 200 200
242 246 246 245 252 258 258 259 261 261 262 265 270 269 266 269 285 305 305 302 300 293 294 281 267 263 261 258 252 244 240 236 235 234 233 228 224 226 226 216 207 205 204
249 252 253 257 260 265 263 262 262 261 264 270 265 277 277 274 269 269 286 299 299 290 291 299 298 286 276 266 255 247 243 237 233 231 231 228 226 222 225 226 218 215 211
254 257 261 269 269 268 267 267 265 264 267 272 272 269 271 272 275 277 283 295 301 293 315 311 306 301 290 276 272 266 249 240 239 232 230 227 226 227 228 228 228 224 222
254 259 266 277 270 273 273 275 273 271 272 274 275 274 275 275 278 277 280 289 292 296 303 315 311 299 288 273 273 269 269 255 235 234 229 231 227 224 226 230 232 234 231
266 272 259 268 267 262 264 266 265 267 270 273 277 277 280 278 276 275 274 280 291 297 304 319 315 305 299 281 277 264 274 272 257 235 228 226 225 229 226 228 232 237 240
263 274 269 272 272 292 290 288 264 261 263 271 278 277 273 276 271 271 275 268 276 292 307 316 300 317 319 305 283 291 303 298 267 254 230 226 226 228 231 231 232 235 238
268 273 272 274 281 284 304 291 275 250 255 263 273 274 270 273 273 265 266 270 274 279 283 297 303 297 303 293 272 283 303 310 299 254 244 235 233 231 231 233 236 235 235
266 269 273 276 282 285 290 289 251 258 253 261 264 270 269 267 265 265 266 261 259 270 275 283 293 291 294 298 277 279 280 296 308 289 249 235 235 236 234 233 235 236 232
275 270 279 282 277 301 315 261 230 272 283 272 269 267 270 270 272 270 264 258 259 260 266 278 287 295 286 294 284 280 276 279 294 310 298 241 241 230 233 234 239 234 230
271 273 280 282 280 292 250 220 257 295 292 297 286 280 277 273 273 268 267 262 252 252 261 268 280 290 284 284 283 275 281 270 278 275 312 293 243 217 235 237 237 236 237
266 276 281 278 285 284 276 282 277 276 269 294 291 289 290 280 278 280 270 267 262 256 258 267 277 283 282 275 275 271 283 278 276 269 265 264 254 226 250 245 245 242 242
272 274 276 270 271 278 283 284 282 273 276 286 290 291 283 276 278 280 275 270 263 266 255 260 269 275 277 268 272 282 278 280 272 261 256 257 258 259 256 253 256 247 248
270 277 288 283 270 279 285 284 286 279 280 288 287 286 282 279 282 267 272 261 257 250 257 253 261 264 270 276 275 276 274 279 285 273 264 263 265 266 277 278 270 261 259
273 274 278 279 283 287 287 283 277 276 284 298 303 317 280 267 268 266 270 262 254 257 265 263 258 258 264 264 269 264 270 278 283 287 283 280 273 267 274 282 267 258 256
274 279 280 281 283 282 290 282 272 262 260 294 306 326 308 275 265 273 284 277 269 261 261 263 266 263 257 254 258 259 267 270 277 284 291 287 286 281 282 275 270 258 250
285 288 287 277 277 281 282 272 254 241 275 295 311 321 306 280 328 275 264 275 282 272 265 268 278 273 273 261 259 250 250 258 269 279 290 293 292 291 284 279 267 253 250
273 277 281 280 279 279 275 261 264 270 277 284 292 298 291 274 283 257 267 301 305 284 264 280 263 259 279 282 269 262 263 259 255 285 285 283 287 287 286 285 273 255 256